Regional Weather Roundup
Issued by NWS Charleston, SC

Current Version | Previous Version | Graphics & Text | Print | Product List | Glossary On
Versions: 1 2 3 4 5 6 7 8 9 10 11 12 13 14 15 16 17 18 19 20 21 22 23 24 25 26 27 28 29 30 31 32 33 34 35 36 37 38 39 40 41 42 43 44 45 46 47 48 49 50
000
ASUS42 KCHS 190327
RWRCHS

Regional Weather Roundup
National Weather Service Charleston SC
1000 PM EST THU JAN 18 2018

NOTE: "fair" indicates few or no clouds below 12,000 feet with no
significant weather and/or obstructions to visibility.

Not all stations are quality controlled. Use data with caution,
especially dewpoint observations.

SCZ027-030-031-034>040-042>050-190400-
...Southeast South Carolina...

CITY           SKY/WX    TMP DP  RH WIND       PRES   REMARKS
N Charleston   FAIR      33  17  51 CALM      30.33R
Waterfront Prk NOT AVBL
Mount Pleasant FAIR      32  23  69 CALM      30.33R
Johns Island   FAIR      30  19  64 CALM      30.34R
Pinopolis        N/A     39  27  60 W6        30.23S WCI  35
Moncks Corner  FAIR      27  21  80 CALM      30.32R
Summerville    FAIR      28  21  74 CALM      30.34S
Beaufort MCAS  FAIR      30  22  72 SW6       30.35R WCI  24
Beaufort Arpt  FAIR      34  28  80 SW5       30.34F WCI  30
Hilton Head Is FAIR      32  23  69 CALM      30.36S
Walterboro     FAIR      30  23  74 CALM      30.34S
Allendale      FAIR      32  21  64 CALM      30.33S

...Southern Midlands and Pee Dee...

CITY           SKY/WX    TMP DP  RH WIND       PRES   REMARKS
Georgetown     FAIR      28  21  74 W3        30.32S
Kingstree      FAIR      27  21  80 CALM      30.30F
Orangeburg     FAIR      30  23  75 CALM      30.31S
Barnwell         N/A     28  21  74 CALM      30.32S
Aiken          FAIR      30  18  59 SW6       30.33S WCI  24
Manning        FAIR      28  21  74 MISG      30.31S
Columbia       FAIR      28  23  81 W5        30.30S WCI  23
Sumter         FAIR      30  20  65 SW5       30.28R WCI  25
Florence       FAIR      31  17  56 SW3       30.29S
Myrtle Beach   FAIR      32  19  58 W6        30.31R WCI  26
N Myrtle Beach FAIR      32  18  56 W5        30.29R WCI  27

$$

GAZ063-065-086>088-099>101-113>116-118-119-134>141-150-190400-
...Southeast Georgia...

CITY           SKY/WX    TMP DP  RH WIND       PRES   REMARKS
Savannah Arpt  FAIR      34  16  47 W3        30.36S
Hunter AAF     FAIR      30  19  64 W6        30.33S WCI  24
Fort Stewart   FAIR      30  21  68 CALM      30.35S
Statesboro     FAIR      28  21  74 CALM      30.36R
Sylvania       FAIR      32  19  59 CALM      30.35S
Claxton        FAIR      28  24  82 CALM      30.37R

...CSRA, Central and far Southeast Georgia...

CITY           SKY/WX    TMP DP  RH WIND       PRES   REMARKS
Thomson        FAIR      33  15  48 N3        30.35F
Augusta-Bush   FAIR      35  15  44 SW3       30.32S
Augusta-Daniel FAIR      39  13  34 CALM      30.31F
Swainsboro     FAIR      32  25  74 CALM      30.36R
Vidalia        FAIR      32  23  69 CALM      30.35F
Eastman        FAIR      28  17  64 CALM      30.39R
Hazlehurst     FAIR      32  17  53 CALM      30.35S
Alma           FAIR      29  22  75 CALM      30.36F
Waycross       FAIR      29  20  70 CALM      30.38R
Jesup          FAIR      28  21  74 CALM      30.37S
Baxley         FAIR      28  23  80 CALM      30.36S
Brunswick      FAIR      32  23  69 CALM      30.38S
Saint Simons   FAIR      33  23  66 CALM      30.37S

$$

SCZ027-028-034-036>038-045-046-048>050-GAZ119-141-190400-
...Lake and Supplemental Coastal Observations...

STATION/POSITION TIME  TEMP    WIND        PRES    WAVE   SWELL
                       AIR SEA DIR/SP/G            HT/PER HT/PER/DIR
                 (UTC) (F)     (DEG/KT/KT) (MB)    (FT/S) (FT/S/D)
Winyah Bay       0245   35     290/  2     1026.0S
Lake Murray      0230   41     240/  4/  6 1024.7S
ACE Basin NERRS  0245   31        CALM     1027.0S
Fort Pulaski     0300   40 45  270/  3/  4 1028.0
Sapelo Island    0300   32        CALM     1028.0

$$

ANZ835-935-AMZ111-154-330-350-352-354-370-450-454-472-190400-
...C-MAN and Buoy Observations...

STATION/POSITION TIME  TEMP    WIND        PRES    WAVE   SWELL
                       AIR SEA DIR/SP/G            HT/PER HT/PER/DIR
                 (UTC) (F)     (DEG/KT/KT) (MB)    (FT/S) (FT/S/D)
Buoy 41004       0310   48 69  300/ 10/ 16 1026.6
Buoy 41008       0250   46 51  290/ 12/ 14 1027.7S   3/12   2/ 70/12
Folly Beach CMAN 0300   37     250/  5/  6 1027.5R
Capers Nearshore 0308   38 48  300/ 10/ 14 1026.4R
Fripp Nearshore  0308   41 47  270/  6/  8 1026.7R


STATION/POSITION TIME  TEMP    WIND        PRES    WAVE   SWELL
                       AIR SEA DIR/SP/G            HT/PER HT/PER/DIR
                 (UTC) (F)     (DEG/KT/KT) (MB)    (FT/S) (FT/S/D)
5E St. Marys GA  0300      49                N/A     3/11   2/ 90/11
Frying Pan Buoy  0310   46 64  300/ 16/ 21 1025.1
Buoy 41025       0310   41     300/ 17/ 23 1023.1
Cape Lookout NC  0300          280/ 15/ 17 1024.3R
Buoy 41002       0250   55 70  320/ 14/ 17 1023.9R  10/11  10/ 30/11
Buoy 41010       NOT AVBL
St Augustine FL  0300   42 49  330/  3/  3 1029.0R


$$



USA.gov is the U.S. government's official web portal to all federal, state and local government web resources and services.